Regional Weather Roundup
Issued by NWS

Home | Current Version | Previous Version | Text Only | Print | Product List | Glossary On
Versions: 1 2 3 4 5 6 7 8 9 10 11 12 13 14 15 16 17 18 19 20 21 22 23 24 25 26 27 28 29 30 31 32 33 34 35 36 37 38 39 40 41 42 43 44 45 46 47 48 49 50
000
ASCA44 KEWX 200111
RWRMX

LATIN AMERICA AND CARIBBEAN REGIONAL WEATHER ROUNDUP
NATIONAL WEATHER SERVICE AUSTIN/SAN ANTONIO TX
800 PM CDT SUN APR 19 2015

NOTE: "FAIR" INDICATED FEW OR NO CLOUDS BELOW 12,000 FEET WITH NO
SIGNIFICANT WEATHER AND/OR OBSTRUCTIONS TO VISIBILITY.

BAJA CALIFORNIA

CITY           SKY/WX    TMP DP  RH WIND       PRES   REMARKS
LORETO         PTSUNNY   84  61  45 CALM      29.80S
LA PAZ         PTCLDY    84  34  16 SW12      29.84R
MEXICALI       PTSUNNY   90  37  15 SE10      29.74F
S.J. DEL CABO  PTCLDY    82  39  21 E5        29.85R
TIJUANA        SUNNY     66  50  55 W13       29.91S

NORTHWESTERN MEXICO

CITY           SKY/WX    TMP DP  RH WIND       PRES   REMARKS
CULIACAN       MOCLDY    88  57  35 W8        29.81S
DURANGO        PTCLDY    75  25  15 SW16      30.00F
GUAYMAS        CLOUDY    81  46  30 CALM      29.75S
HERMOSILLO     PTSUNNY   88  21   8 S14       29.82
CD. JUAREZ     MOCLDY    79  25  13 W12       29.84F
LOS MOCHIS     CLOUDY    79  34  19 W7        29.82S
OBREGON        CLOUDY    81  39  22 SW6       29.79S

NORTHEASTERN MEXICO

CITY           SKY/WX    TMP DP  RH WIND       PRES   REMARKS
CHIHUAHUA      MOCLDY    73  25  16 E15       29.93S
MATAMOROS      MOCLDY    79  77  94 E7        29.76S
MONTERREY      MOCLDY    84  68  58 NE3       29.80R
NUEVO LAREDO   PTCLDY    84  72  65 CALM      29.76S
REYNOSA        MOCLDY    79  70  73 SE3       29.74R
SALTILLO       PTCLDY    77  50  38 CALM      29.97F
TORREON        MOCLDY    82  30  15 CALM      29.88F
CD. VICTORIA   PTCLDY    86  61  42 NW9       29.73R

WESTERN MEXICO

CITY           SKY/WX    TMP DP  RH WIND       PRES   REMARKS
AGUASCALIENTES PTCLDY    73  25  16 SW15      30.08R
COLIMA         CLEAR     79  64  61 SW12      29.91R
DEL BAJIO      MOCLDY    77  37  24 SW8       30.13R
GUADALAJARA    PTCLDY    79  39  24 W14       30.01R
MANZANILLO     CLEAR     79  73  83 W12       29.74R
MAZATLAN       PTCLDY    79  55  44 SW13      29.79S
P. VALLARTA    PTCLDY    79  70  73 SW10      29.82S
ZACATECAS      CLEAR     72  32  23 SW17      30.10S

CENTRAL MEXICO

CITY           SKY/WX    TMP DP  RH WIND       PRES   REMARKS
MEXICO CITY    PTCLDY    75  37  25 S13       30.16R
MORELIA        PTCLDY    73  46  38 S7        30.08R
POZA RICA      MOCLDY    84  77  79 NE7       29.72S HX  94
PUEBLA         PTCLDY    70  39  32 S18       30.16R
QUERETARO      PTCLDY    73  41  31 W12       30.13R
S. LUIS POTOSI MOCLDY    77  32  19 SW5       30.04R
TAMPICO        MOCLDY    81  75  83 E12       29.70R HAZE
TOLUCA         PTCLDY    66  30  26 W10       30.27R

SOUTHERN MEXICO

CITY           SKY/WX    TMP DP  RH WIND       PRES   REMARKS
ACAPULCO       PTCLDY    81  75  83 W9        29.78R
B. DE HUATULCO PTCLDY    79  70  73 SW15      29.81R
OAXACA         MOCLDY    82  43  24 E9        30.02R
VERACRUZ       CLEAR     82  73  74 E3        29.70R
ZIHUATANEJO    CLEAR     82  73  74 CALM      29.79R

YUCATAN PENINSULA

CITY           SKY/WX    TMP DP  RH WIND       PRES   REMARKS
CAMPECHE       CLEAR     86  79  79 NW12      29.70R HX  99
CANCUN         PTCLDY    81  73  78 SE8       29.86R
CHETUMAL       MOCLDY    82  72  69 SE12      29.80R
CD. DEL CARMEN PTCLDY    86  77  74 N6        29.72R HX  97
COZUMEL        PTCLDY    77  73  88 SE6       29.85S
MERIDA         MOCLDY    84  72  65 N13       29.75R
MINATITLAN     PTCLDY    84  77  79 N7        29.68R HX  94
TAPACHULA      MOCLDY    84  79  84 CALM      29.81R HX  96
TUX. GUTIERREZ MOCLDY    88  63  42 NW8       29.79R
VILLAHERMOSA   CLEAR     90  77  66 N6        29.73R HX 102

CENTRAL AMERICA

CITY           SKY/WX    TMP DP  RH WIND       PRES   REMARKS

CARIBBEAN

CITY           SKY/WX    TMP DP  RH WIND       PRES   REMARKS
ARUBA          PTCLDY    81  73  78 E20       29.86R
CURACAO        PTCLDY    81  73  78 E14       29.89S
KINGSTON       PTCLDY    82  72  69 SE13      29.89R
NASSAU           N/A     79  72  78 SE3       29.96R
SAN JUAN       CLEAR     81  73  78 E7        29.99R
SANTO DOMINGO  PTCLDY    77  72  83 SE7       29.94S
ST. KITTS      PTCLDY    79  73  83 E12       30.00S

$$




USA.gov is the U.S. government's official web portal to all federal, state and local government web resources and services.